Weather History for Hayward, WI

Change the Weather History Date:

Sunday, October 7, 2012

  Actual Average Record
Temperature  
Mean Temperature 34 °F -  
Max Temperature 50 °F 55 °F 84 °F (2007)
Min Temperature 19 °F 38 °F 17 °F (2001)
Degree Days  
Heating Degree Days 32    
Moisture  
Dew Point 20 °F    
Average Humidity 57    
Maximum Humidity 89    
Minimum Humidity 29    
Precipitation  
Precipitation 0.00 in - - ()
Sea Level Pressure  
Sea Level Pressure 30.08 in    
Wind  
Wind Speed 3 mph (SW)    
Max Wind Speed 10 mph    
Max Gust Speed 21 mph    
Visibility 10 miles    
Events      
Averages and records for this station are not official NWS values.
T = Trace of Precipitation, MM = Missing Value Source: NWS Daily Summary

Daily Weather History Graph

Daily Weather History Graph

Search for Another Location

Airport:

Trip Planner

Search our weather history database for the weather conditions in past years. The results will help you decide how hot, cold, wet, or windy it might be!

Date:

Astronomy

Oct. 07, 2012 Rise Set
Actual Time 7:12 AM CDT 6:33 PM CDT
Civil Twilight 6:42 AM CDT 7:03 PM CDT
Nautical Twilight 6:08 AM CDT 7:37 PM CDT
Astronomical Twilight 5:33 AM CDT 8:12 PM CDT
Moon 11:32 PM CDT (10/7) 2:03 PM CDT (10/7)
Length of Visible Light 12h 20m
Length of Day
11h 20m
Waning Gibbous, 56% of the Moon is Illuminated
Oct 7
Waning Gibbous
Oct 8
Last Quarter
Oct 15
New
Oct 21
First Quarter
Oct 29
Full

Hourly Weather History & Observations

Time (CDT) Temp. Windchill Dew Point Humidity Pressure Visibility Wind Dir Wind Speed Gust Speed Precip Events Conditions
12:53 AM 27.0 °F - 21.9 °F 81% 30.22 in 10.0 mi Calm Calm - N/A   Clear
1:53 AM 26.1 °F - 21.0 °F 81% 30.22 in 10.0 mi Calm Calm - N/A   Clear
2:53 AM 23.0 °F - 19.0 °F 85% 30.20 in 10.0 mi Calm Calm - N/A   Clear
3:53 AM 21.9 °F - 18.0 °F 85% 30.18 in 10.0 mi Calm Calm - N/A   Clear
4:53 AM 19.9 °F - 17.1 °F 89% 30.18 in 10.0 mi Calm Calm - N/A   Clear
5:53 AM 21.9 °F - 18.0 °F 85% 30.17 in 10.0 mi Calm Calm - N/A   Clear
6:53 AM 21.9 °F - 17.1 °F 82% 30.17 in 10.0 mi Calm Calm - N/A   Clear
7:53 AM 23.0 °F - 19.9 °F 88% 30.17 in 10.0 mi Calm Calm - N/A   Clear
8:53 AM 30.9 °F - 26.1 °F 82% 30.15 in 10.0 mi Calm Calm - N/A   Clear
9:53 AM 37.9 °F 33.5 °F 25.0 °F 60% 30.14 in 10.0 mi Variable 5.8 mph - N/A   Clear
10:53 AM 42.1 °F 36.6 °F 21.9 °F 45% 30.12 in 10.0 mi West 9.2 mph - N/A   Clear
11:53 AM 45.0 °F 40.1 °F 21.0 °F 39% 30.10 in 10.0 mi WSW 9.2 mph 17.3 mph N/A   Clear
12:53 PM 46.0 °F 41.0 °F 19.9 °F 35% 30.09 in 10.0 mi SW 10.4 mph 18.4 mph N/A   Partly Cloudy
1:53 PM 48.0 °F - 19.0 °F 32% 30.06 in 10.0 mi West 9.2 mph 20.7 mph N/A   Scattered Clouds
2:53 PM 48.9 °F - 18.0 °F 29% 30.03 in 10.0 mi Variable 6.9 mph 17.3 mph N/A   Partly Cloudy
3:53 PM 46.9 °F - 17.1 °F 30% 30.02 in 10.0 mi WSW 8.1 mph 17.3 mph N/A   Clear
4:53 PM 46.9 °F - 18.0 °F 32% 30.00 in 10.0 mi SW 9.2 mph - N/A   Clear
5:53 PM 46.0 °F 42.5 °F 17.1 °F 31% 30.00 in 10.0 mi SW 6.9 mph - N/A   Clear
6:53 PM 43.0 °F 41.3 °F 18.0 °F 37% 30.00 in 10.0 mi SW 3.5 mph - N/A   Clear
7:53 PM 36.0 °F 33.3 °F 19.0 °F 50% 30.00 in 10.0 mi South 3.5 mph - N/A   Clear
8:53 PM 37.0 °F 34.5 °F 19.0 °F 48% 29.99 in 10.0 mi South 3.5 mph - N/A   Clear
9:53 PM 39.0 °F 35.7 °F 19.9 °F 46% 29.96 in 10.0 mi Variable 4.6 mph - N/A   Clear
10:53 PM 39.0 °F 35.7 °F 19.0 °F 45% 29.94 in 10.0 mi South 4.6 mph - N/A   Clear
11:53 PM 39.0 °F 34.8 °F 19.0 °F 45% 29.93 in 10.0 mi South 5.8 mph - N/A   Clear